Wind_Speed
14 15 15 15 15 17 17 18 19 20 21 21 22 23 24 25 24 24 24 24 23 23 23 22 21 21 20 19 18 17 16 16 15 15 15 15 15 15 15 15 16 16 16 17
16 16 17 16 16 17 18 18 19 20 20 21 22 24 24 24 24 24 23 23 22 22 21 21 20 19 18 17 16 15 14 14 14 15 15 15 15 14 14 14 14 15 16 16
18 18 17 17 17 18 18 18 18 19 20 21 22 23 24 24 24 24 22 22 21 21 19 19 19 18 17 15 14 13 13 13 14 14 14 14 13 13 13 13 13 14 15 15
19 20 19 18 18 18 18 18 18 19 20 21 22 23 24 23 23 23 22 22 21 19 18 18 18 16 15 14 13 13 13 13 12 12 13 12 12 12 12 12 13 14 14 15
21 21 20 19 18 19 19 19 19 20 21 21 21 23 23 22 22 22 22 21 19 17 17 17 16 15 15 14 14 14 13 12 11 12 12 11 11 10 11 12 12 13 13 15
22 22 21 19 19 19 20 20 20 21 21 21 22 22 22 22 22 21 20 19 18 17 16 16 15 15 15 15 15 14 12 11 11 11 11 10 10 9 10 11 12 13 14 15
21 21 21 20 20 21 21 21 20 20 20 20 21 21 21 21 21 19 18 17 17 16 16 15 14 14 15 15 14 13 12 11 10 9 9 9 9 9 9 10 11 13 14 15
23 22 21 21 21 21 21 21 21 20 19 20 20 20 20 20 19 18 17 17 16 15 14 14 14 14 14 14 13 12 11 10 9 8 7 7 8 8 9 11 11 12 14 16
23 22 22 21 21 22 22 22 21 20 19 19 19 19 19 19 18 18 17 16 14 14 14 13 13 13 13 13 11 10 9 9 8 7 6 6 6 7 9 11 12 13 15 16
24 23 23 22 22 22 22 22 20 19 19 18 18 18 18 18 17 16 15 15 14 14 13 12 11 11 11 10 9 9 9 8 7 6 6 7 7 8 9 11 13 13 15 15
25 24 24 24 23 23 22 22 20 19 18 18 17 17 17 17 16 15 14 14 14 13 12 11 10 9 8 8 8 8 8 7 7 6 6 7 8 8 10 12 13 14 16 17
25 25 25 24 23 23 23 21 20 19 18 17 17 17 16 16 14 13 13 12 12 12 11 10 8 6 6 7 7 7 7 6 7 6 6 7 9 10 11 12 14 15 16 17
26 26 25 24 23 22 21 21 20 19 18 18 18 17 16 14 14 13 13 12 11 11 10 9 7 5 5 5 5 5 6 6 6 6 7 8 9 10 12 13 14 15 17 18
26 26 25 23 23 23 22 20 19 18 17 18 18 17 15 14 14 13 13 12 11 10 9 7 5 4 5 4 4 4 4 5 5 6 7 8 10 11 13 14 15 16 17 19
26 25 25 24 23 23 21 20 19 18 18 18 17 15 14 13 12 12 12 11 10 8 7 6 4 3 3 3 2 3 4 4 5 5 6 8 9 11 12 14 15 17 18 19
25 25 25 24 23 22 21 20 19 18 18 17 16 14 13 12 12 11 11 10 9 7 6 5 3 3 2 1 1 2 3 3 4 4 5 8 9 10 12 14 15 17 18 20
25 24 24 23 23 22 21 20 19 18 18 17 16 14 13 12 11 11 10 9 8 7 6 4 3 3 2 1 1 1 2 3 3 4 6 7 9 11 12 14 15 17 19 21
25 24 23 22 22 22 21 20 19 18 17 16 15 14 12 12 11 10 9 8 7 6 5 4 4 3 3 2 1 0 1 2 2 4 6 7 9 11 12 14 16 18 19 21
24 23 23 22 22 21 20 19 18 18 17 15 14 13 13 12 11 10 9 8 7 6 5 5 4 4 4 2 2 1 1 1 2 4 6 7 9 10 12 14 16 18 19 21
23 23 23 22 21 21 20 19 19 18 17 16 15 13 13 12 12 11 9 8 7 6 6 6 5 4 4 3 2 2 1 1 3 4 6 7 9 11 13 14 16 18 20 21
23 22 22 21 21 21 20 19 19 18 17 16 15 14 13 12 11 10 9 9 8 8 7 7 6 5 5 3 3 2 1 1 3 4 5 7 9 11 13 15 16 18 20 22
22 21 21 20 20 19 18 18 18 17 17 15 14 14 13 12 11 10 9 9 9 9 8 8 7 6 5 5 4 3 2 1 2 4 5 7 10 11 13 15 17 19 20 22
21 21 20 20 19 18 17 17 17 17 17 16 15 15 13 12 12 11 10 10 10 10 9 9 8 7 6 6 5 3 2 1 2 4 5 7 9 11 13 15 17 19 21 22
21 21 21 20 19 18 18 18 18 17 17 16 16 15 14 13 13 12 12 12 11 11 10 10 9 8 7 6 5 4 3 2 2 3 5 7 9 11 13 15 17 19 20 22
22 21 21 21 20 20 19 19 18 18 17 16 16 15 15 14 14 13 13 13 12 12 11 10 10 9 8 6 5 4 3 2 2 3 5 7 9 11 13 15 16 18 20 22
23 22 22 22 21 20 20 20 19 19 17 17 16 16 15 15 15 15 14 14 13 12 11 11 10 9 8 7 6 5 4 3 3 4 6 8 9 11 13 15 17 18 20 22
24 23 22 22 21 20 20 21 21 20 18 17 16 16 15 15 15 15 15 15 14 13 12 11 10 10 9 8 6 5 4 3 3 4 6 8 10 12 13 15 16 18 21 23
Wind_Direction
307 307 307 308 310 308 307 309 312 315 315 316 317 320 322 323 324 324 324 321 320 318 316 314 315 313 312 310 308 306 305 304 304 301 298 300 300 298 299 302 305 308 312 313
305 306 307 307 306 305 305 309 311 315 318 317 317 318 320 321 322 324 324 323 324 323 320 319 317 316 317 318 313 309 309 307 307 307 301 302 302 300 300 303 306 310 313 315
306 309 310 310 308 306 306 311 313 316 319 317 317 318 320 321 322 324 325 326 327 326 327 326 322 318 322 323 318 312 311 311 310 307 302 302 303 301 302 306 309 312 316 318
307 308 309 311 307 306 305 308 311 313 316 317 318 320 321 321 322 323 326 328 329 330 330 331 331 330 328 324 322 320 317 315 313 310 308 304 306 306 306 309 315 317 319 321
305 306 307 308 306 305 306 308 312 312 313 314 316 319 320 321 322 324 324 328 328 330 332 334 336 338 335 332 326 323 323 318 313 311 312 309 308 312 315 316 319 323 326 329
302 302 306 308 305 305 306 307 309 311 312 314 317 318 320 321 323 325 324 326 326 329 332 334 338 339 336 335 333 331 327 322 315 313 314 315 314 316 317 319 322 330 332 335
300 301 304 305 305 306 306 308 307 309 311 316 316 316 318 320 322 325 325 326 326 327 330 334 335 336 336 337 335 332 330 326 323 321 322 324 329 330 328 328 331 336 336 337
298 298 300 302 305 305 305 304 305 308 309 313 314 315 317 318 320 323 324 325 326 328 330 334 333 334 336 338 339 338 336 336 335 334 333 337 342 343 342 342 341 342 342 342
297 296 296 299 302 305 304 303 302 305 307 310 312 314 316 316 318 320 321 324 325 328 332 334 335 336 337 342 345 347 349 351 350 350 354 353 350 354 354 353 350 348 348 347
293 293 293 296 297 299 299 301 301 303 305 306 308 309 311 313 315 315 316 320 320 323 328 331 334 338 342 349 350 351 354 356 357 3 10 9 7 6 4 360 355 354 352 350
289 289 289 292 294 293 293 297 296 296 299 301 301 304 307 308 309 311 312 315 317 319 323 329 333 337 346 349 352 353 356 0 5 12 14 16 14 12 5 359 357 356 354 352
288 287 287 290 292 291 290 292 291 290 293 297 298 301 304 304 304 306 309 313 314 317 322 328 334 340 346 349 353 359 6 15 21 26 33 24 19 13 6 1 358 356 355 354
286 285 286 289 289 290 290 289 289 289 291 294 296 298 299 299 301 303 306 309 310 313 316 319 322 330 339 344 353 2 7 15 26 33 32 25 20 14 9 5 2 0 359 357
285 283 283 285 286 287 286 286 286 286 288 291 292 294 297 299 299 301 301 303 305 308 310 312 315 323 335 337 348 4 12 25 31 28 24 18 16 13 11 9 7 6 4 1
282 280 279 280 282 284 283 283 283 284 283 287 288 291 292 294 297 298 299 299 299 302 302 300 303 310 322 328 348 9 17 26 26 23 18 16 15 13 11 9 8 7 6 4
278 278 277 275 277 280 280 278 279 281 280 283 283 283 286 290 294 295 296 299 297 292 286 282 283 284 299 315 8 24 28 23 21 22 19 15 14 13 10 7 6 5 4 3
277 276 276 274 274 275 276 275 276 279 279 279 279 279 280 283 289 293 292 292 286 274 268 263 250 249 256 239 43 37 29 17 15 13 9 9 10 8 6 6 5 4 3 3
274 273 272 272 271 271 270 270 271 273 275 274 273 273 274 277 283 287 286 284 273 261 255 245 234 235 223 209 226 349 33 18 12 5 8 9 7 6 6 5 4 4 3 2
270 269 268 268 267 266 264 264 265 267 268 267 267 267 268 271 273 277 278 271 256 250 241 232 227 223 208 201 203 196 224 335 352 9 12 9 6 6 5 4 2 1 1 1
267 267 266 265 265 264 261 260 260 261 261 260 260 261 262 263 267 270 266 256 245 231 224 223 222 213 203 206 196 194 212 333 356 3 9 8 7 5 3 2 2 0 1 1
264 264 263 263 263 262 260 258 256 256 256 254 254 256 256 257 261 260 252 240 228 217 215 215 213 210 210 207 199 204 233 303 351 6 8 7 5 3 2 2 2 2 2 2
262 262 262 262 261 259 257 254 252 252 252 250 251 252 250 251 251 248 241 228 217 213 213 210 207 210 213 208 208 214 237 297 0 4 1 0 359 359 0 1 1 1 1 1
260 260 260 261 259 258 254 250 248 249 248 247 247 246 245 246 243 238 229 216 212 215 211 206 205 205 203 203 205 217 229 265 346 351 353 353 355 358 360 360 359 360 360 360
259 260 260 257 256 254 251 248 245 244 243 243 243 242 241 240 235 228 218 211 211 212 208 206 203 200 200 201 205 210 219 246 314 339 344 347 352 356 357 357 357 358 359 359
258 259 257 254 254 253 249 245 243 241 239 239 238 238 236 230 225 219 214 213 213 209 206 203 197 197 199 201 201 206 224 251 294 326 334 339 345 351 353 353 355 357 358 358
255 256 256 254 252 250 246 243 240 238 235 234 234 233 229 224 220 214 212 211 209 206 204 200 197 199 201 201 203 214 231 252 292 320 328 333 340 347 349 350 352 355 356 356
253 254 254 253 251 250 245 240 236 233 232 230 228 225 222 220 215 211 208 205 203 202 202 203 202 200 200 203 208 216 232 258 292 313 324 333 340 343 345 347 350 352 353 355
Height
5841 5839 5836 5834 5832 5830 5827 5824 5822 5819 5816 5813 5809 5806 5802 5798 5794 5789 5785 5781 5776 5772 5768 5764 5760 5757 5754 5751 5749 5747 5745 5744 5742 5741 5740 5738 5737 5735 5734 5733 5731 5728 5726 5723
5837 5835 5833 5831 5828 5825 5823 5820 5818 5815 5812 5809 5805 5802 5798 5793 5789 5785 5781 5776 5771 5767 5763 5759 5756 5753 5750 5747 5745 5743 5742 5740 5739 5737 5735 5734 5732 5731 5730 5728 5726 5724 5722 5719
5833 5831 5829 5827 5824 5821 5818 5816 5814 5811 5809 5805 5801 5798 5793 5789 5785 5780 5776 5772 5768 5764 5759 5756 5752 5749 5746 5744 5741 5740 5738 5737 5735 5733 5732 5730 5728 5727 5726 5724 5723 5720 5718 5715
5828 5827 5824 5824 5819 5817 5814 5812 5810 5807 5803 5800 5797 5793 5789 5784 5780 5776 5772 5768 5764 5760 5756 5753 5749 5746 5743 5740 5738 5736 5735 5733 5731 5730 5728 5727 5725 5724 5722 5721 5719 5717 5714 5712
5823 5821 5820 5818 5815 5812 5809 5807 5805 5802 5799 5796 5792 5789 5785 5780 5776 5772 5768 5764 5761 5757 5754 5750 5747 5743 5741 5738 5736 5734 5732 5730 5729 5727 5726 5724 5722 5721 5719 5718 5716 5714 5711 5708
5818 5815 5814 5814 5810 5806 5805 5802 5799 5796 5794 5791 5787 5784 5781 5776 5772 5768 5764 5761 5757 5754 5752 5748 5745 5742 5739 5736 5734 5731 5729 5728 5726 5725 5723 5722 5720 5718 5717 5715 5713 5711 5708 5705
5812 5809 5808 5807 5804 5802 5800 5798 5794 5791 5788 5785 5782 5779 5775 5771 5768 5765 5761 5758 5755 5752 5749 5746 5743 5740 5738 5735 5732 5729 5727 5725 5723 5722 5721 5719 5718 5717 5715 5713 5711 5709 5706 5703
5806 5804 5804 5801 5798 5796 5794 5790 5788 5786 5783 5781 5778 5774 5771 5767 5764 5761 5758 5755 5752 5749 5747 5744 5741 5739 5736 5733 5730 5727 5725 5723 5721 5720 5719 5718 5717 5716 5714 5712 5710 5707 5704 5701
5800 5800 5797 5794 5792 5790 5787 5785 5783 5780 5778 5775 5772 5769 5766 5763 5760 5758 5755 5752 5750 5747 5745 5742 5739 5737 5734 5731 5728 5726 5724 5722 5720 5719 5718 5717 5716 5715 5713 5711 5709 5706 5703 5700
5792 5791 5790 5788 5786 5784 5781 5779 5777 5775 5772 5770 5767 5764 5762 5759 5757 5754 5752 5750 5748 5745 5743 5740 5738 5735 5733 5730 5728 5726 5724 5722 5720 5719 5718 5717 5716 5714 5713 5711 5708 5706 5703 5699
5786 5785 5783 5781 5780 5778 5775 5773 5772 5770 5767 5765 5762 5760 5758 5756 5753 5751 5749 5747 5745 5743 5740 5738 5736 5734 5732 5730 5728 5726 5724 5722 5720 5719 5718 5717 5716 5714 5712 5711 5708 5705 5702 5698
5779 5777 5776 5775 5773 5771 5769 5768 5766 5765 5763 5760 5758 5756 5754 5752 5750 5748 5746 5744 5742 5740 5738 5736 5734 5733 5731 5730 5728 5726 5725 5723 5722 5720 5719 5718 5716 5715 5712 5710 5707 5704 5701 5697
5770 5769 5768 5767 5766 5764 5762 5761 5760 5759 5757 5755 5753 5751 5749 5747 5746 5744 5742 5741 5739 5738 5736 5734 5733 5732 5730 5729 5728 5726 5725 5724 5722 5721 5720 5718 5717 5715 5713 5710 5707 5704 5700 5696
5762 5761 5760 5759 5758 5757 5756 5755 5754 5753 5752 5750 5748 5747 5745 5743 5741 5740 5739 5737 5736 5735 5733 5732 5731 5730 5729 5728 5727 5726 5725 5724 5723 5722 5721 5719 5717 5715 5713 5710 5707 5704 5700 5696
5755 5754 5753 5752 5752 5751 5750 5749 5748 5748 5746 5745 5744 5742 5741 5739 5738 5736 5735 5734 5732 5731 5730 5730 5729 5729 5728 5727 5726 5726 5725 5724 5723 5722 5721 5719 5718 5716 5714 5711 5708 5704 5700 5696
5746 5746 5745 5745 5745 5744 5744 5743 5743 5742 5741 5740 5739 5737 5736 5735 5733 5733 5731 5730 5729 5728 5728 5728 5728 5727 5727 5726 5726 5725 5725 5724 5723 5722 5721 5720 5718 5716 5714 5711 5708 5704 5700 5696
5738 5738 5737 5737 5737 5737 5737 5737 5737 5736 5735 5735 5733 5733 5732 5731 5729 5729 5728 5727 5726 5726 5726 5726 5726 5726 5725 5725 5725 5725 5725 5724 5723 5722 5721 5720 5718 5716 5714 5711 5707 5704 5700 5695
5730 5729 5729 5729 5729 5730 5730 5730 5730 5730 5730 5729 5728 5728 5727 5727 5726 5725 5724 5723 5723 5723 5723 5724 5724 5724 5725 5725 5725 5724 5724 5724 5723 5722 5721 5720 5718 5716 5713 5710 5707 5703 5699 5695
5721 5721 5721 5722 5722 5722 5723 5723 5724 5724 5724 5723 5723 5723 5723 5723 5722 5721 5721 5720 5721 5721 5722 5722 5723 5723 5723 5724 5724 5724 5724 5723 5723 5722 5721 5720 5718 5716 5713 5710 5707 5703 5699 5694
5713 5713 5714 5714 5714 5715 5715 5716 5717 5717 5718 5718 5718 5718 5718 5718 5718 5718 5717 5717 5718 5719 5720 5720 5721 5722 5722 5723 5723 5723 5723 5723 5723 5722 5720 5719 5717 5715 5713 5710 5706 5703 5698 5694
5705 5706 5706 5707 5707 5708 5708 5709 5710 5711 5712 5712 5713 5713 5714 5714 5714 5714 5714 5714 5715 5717 5718 5719 5720 5720 5721 5722 5722 5723 5723 5723 5722 5721 5720 5719 5717 5715 5712 5709 5706 5702 5698 5693
5698 5698 5699 5700 5700 5701 5702 5703 5704 5705 5706 5707 5708 5708 5709 5710 5711 5711 5711 5712 5713 5714 5716 5717 5718 5719 5720 5720 5721 5722 5722 5722 5722 5721 5719 5718 5716 5714 5711 5708 5705 5701 5697 5692
5690 5691 5692 5693 5693 5694 5696 5697 5698 5699 5700 5701 5703 5704 5705 5706 5707 5707 5708 5709 5711 5712 5713 5715 5716 5717 5718 5719 5720 5721 5721 5721 5721 5720 5719 5717 5715 5713 5710 5707 5704 5701 5696 5692
5682 5683 5685 5685 5687 5688 5689 5690 5692 5693 5695 5696 5697 5699 5700 5701 5703 5704 5705 5707 5708 5710 5711 5712 5714 5715 5717 5718 5719 5719 5720 5720 5720 5719 5718 5717 5715 5712 5709 5707 5703 5700 5696 5691
5675 5676 5677 5678 5680 5681 5683 5684 5686 5688 5689 5691 5692 5694 5695 5697 5699 5700 5702 5704 5705 5707 5709 5710 5712 5714 5715 5716 5717 5718 5719 5719 5719 5718 5717 5716 5713 5711 5708 5705 5702 5699 5695 5690
5667 5668 5670 5671 5673 5674 5676 5678 5680 5682 5684 5686 5687 5689 5691 5693 5695 5697 5699 5700 5702 5704 5706 5708 5710 5712 5713 5715 5716 5717 5717 5717 5717 5717 5716 5714 5712 5709 5707 5704 5701 5698 5694 5689
5659 5661 5662 5664 5665 5666 5668 5670 5673 5676 5678 5680 5682 5685 5687 5689 5691 5693 5695 5698 5700 5702 5704 5706 5708 5710 5711 5713 5714 5715 5715 5716 5715 5715 5714 5712 5710 5708 5705 5703 5700 5696 5692 5688